Flag for Australia Weather past 2 weeks in Dubbo, New South Wales, Australia

Now
61 °F

Sunny.


Feels Like: 61 °F
Forecast: 61 / 81 °F
Wind: 7 mph from Southwest

Location: Dubbo Airport

Current Time: Dec 19, 2014 at 6:47:55 AM

Latest Report: Dec 19, 2014 at 6:00 AM


Visibility: N/A

Pressure: 29.89 "Hg

Humidity: 55%

Dew point: 45 °F

Location of DubboLocation

Historic Weather in Dubbo — Graph

°F

Dubbo temperature yesterday

Maximum temperature yesterday: 88 °F (at 4:30 PM)
Minimum temperature yesterday: 63 °F (at 5:00 AM)
Average temperature yesterday: 75 °F

Past Weeks' High & Low Weather Summary

 TemperatureHumidityPressure
High100 °F (Dec 16, 1:30 PM)100% (Dec 4, 5:00 AM)30.01 "Hg (Dec 4, 5:00 AM)
Low55 °F (Dec 13, 5:00 AM)18% (Dec 8, 6:00 PM)29.53 "Hg (Dec 16, 2:00 PM)
Average75 °F56%29.78 "Hg
* Reported Dec 4 5:00 AM — Dec 19 5:30 AM, Dubbo, Weather by CustomWeather, © 2014

Note: Actual official high and low records may vary slightly from our data, if they occured in-between our weather recording intervals... More about our weather records

Advertising

Dubbo weather history for previous 24 hours

 ConditionsComfort  
Time TempWeatherWind HumidityBarometerVisibility
5:30 AM
Dec 19
59 °FClear.7 mph55%29.86 "HgN/A
5:00 AM63 °FClear.9 mph52%29.86 "HgN/A
4:30 AM61 °FClear.5 mph52%29.86 "HgN/A
4:00 AM64 °FClear.3 mph49%29.83 "Hg6 mi
3:30 AM64 °FClear.3 mph46%29.83 "HgN/A
3:00 AM64 °FClear.7 mph49%29.83 "HgN/A
2:00 AM68 °FClear.9 mph40%29.83 "HgN/A
1:00 AM66 °FClear.7 mph43%29.83 "HgN/A
12:30 AM66 °FClear.6 mph43%29.80 "Hg6 mi
12:00 AM68 °FClear.6 mph40%29.80 "HgN/A
11:30 PM
Dec 18
72 °FClear.5 mph36%29.80 "Hg6 mi
11:00 PM70 °FClear.6 mph38%29.80 "HgN/A
10:30 PM73 °FClear.6 mph31%29.80 "HgN/A
10:00 PM73 °FClear.6 mph31%29.80 "HgN/A
9:00 PM79 °FClear.14 mph26%29.77 "HgN/A
8:30 PM75 °FClear.5 mph25%29.77 "HgN/A
8:00 PM82 °FSunny.10 mph21%29.74 "HgN/A
7:00 PM88 °FSunny.15 mph18%29.71 "HgN/A
6:30 PM86 °FSunny.18 mph19%29.71 "HgN/A
6:00 PM88 °FSunny.17 mph18%29.71 "HgN/A
5:30 PM88 °FSunny.16 mph21%29.71 "HgN/A
5:00 PM88 °FSunny.16 mph22%29.71 "HgN/A
4:30 PM88 °FSunny.15 mph22%29.74 "HgN/A
4:00 PM86 °FSunny.16 mph24%29.74 "Hg5 mi
3:30 PM86 °FSunny.13 mph25%29.74 "HgN/A
3:00 PM86 °FSunny.14 mph24%29.74 "HgN/A
2:00 PM84 °FSunny.14 mph31%29.74 "HgN/A
1:30 PM82 °FSunny.7 mph48%29.74 "HgN/A
1:00 PM81 °FSunny.8 mph54%29.77 "HgN/A
12:30 PM79 °FSunny.5 mph58%29.77 "Hg6 mi
12:00 PM79 °FSunny.7 mph58%29.77 "Hg6 mi
11:30 AM77 °FSunny.7 mph65%29.77 "HgN/A
11:05 AM75 °FSunny.8 mph69%29.77 "Hg3 mi
10:30 AM73 °FSunny.10 mph69%29.77 "HgN/A
10:00 AM73 °FSunny.12 mph69%29.77 "HgN/A
9:00 AM72 °FSunny.10 mph73%29.77 "Hg6 mi
8:00 AM68 °FScattered clouds.13 mph78%29.77 "HgN/A
7:30 AM66 °FScattered clouds.14 mph78%29.77 "HgN/A
7:00 AM64 °FSunny.12 mph83%29.77 "HgN/A
6:30 AM64 °FSunny.12 mph83%29.74 "Hg5 mi
6:00 AM63 °FSunny.10 mph88%29.74 "Hg6 mi
Weather by CustomWeather, © 2014

See weather overviewHow to use our weather pages